Change the Weather History Date:

Sunday, October 7, 2012

  Actual Average Record
Temperature  
Mean Temperature 43 °F 50 °F  
Max Temperature 61 °F 62 °F 89 °F (2010)
Min Temperature 25 °F 38 °F 17 °F (2000)
Degree Days  
Heating Degree Days 22 15  
Month to date heating degree days 148 97  
Since 1 July heating degree days 264 329  
Cooling Degree Days 0 0  
Month to date cooling degree days 0 0  
Year to date cooling degree days 971 634  
Moisture  
Dew Point 25 °F    
Average Humidity 49    
Maximum Humidity 68    
Minimum Humidity 29    
Precipitation  
Precipitation 0.00 in 0.04 in 0.02 in (1999)
Month to date precipitation 0.12 0.24  
Year to date precipitation 12.18 15.42  
Sea Level Pressure  
Sea Level Pressure 30.01 in    
Wind  
Wind Speed 12 mph (West)    
Max Wind Speed 25 mph    
Max Gust Speed 31 mph    
T = Trace of Precipitation, MM = Missing Value Source: NWS Daily Summary

Daily Weather History Graph

Daily Weather History Graph

Search for Another Location

Airport or City:

Trip Planner

Search our weather history database for the weather conditions in past years. The results will help you decide how hot, cold, wet, or windy it might be!

Date:

Astronomy

Oct. 07, 2012 Rise Set
Actual Time 6:54 AM MDT 6:16 PM MDT
Civil Twilight 6:24 AM MDT 6:45 PM MDT
Nautical Twilight 5:50 AM MDT 7:19 PM MDT
Astronomical Twilight 5:16 AM MDT 7:53 PM MDT
Moon 11:19 PM MDT (10/7) 1:43 PM MDT (10/7)
Length of Visible Light 12h 20m
Length of Day
11h 22m
Waning Gibbous, 55% of the Moon is Illuminated
Oct 7
Waning Gibbous
Oct 8
Last Quarter
Oct 15
New
Oct 21
First Quarter
Oct 29
Full

Hourly Weather History & Observations

Time (MDT) Temp. Windchill Dew Point Humidity Pressure Visibility Wind Dir Wind Speed Gust Speed Precip Events Conditions
12:56 AM 28.9 °F 20.4 °F 16.0 °F 58% 30.21 in - SW 9.2 mph - N/A   Unknown
1:56 AM 28.9 °F 18.6 °F 17.1 °F 61% 30.20 in - SW 12.7 mph - N/A   Unknown
2:56 AM 28.0 °F 18.1 °F 17.1 °F 63% 30.17 in - SW 11.5 mph - N/A   Unknown
3:56 AM 28.0 °F 18.1 °F 17.1 °F 63% 30.14 in - SW 11.5 mph - N/A   Unknown
4:56 AM 26.1 °F 15.0 °F 17.1 °F 69% 30.12 in - SSW 12.7 mph - N/A   Unknown
5:56 AM 27.0 °F 16.1 °F 16.0 °F 63% 30.11 in - SSW 12.7 mph - N/A   Unknown
6:56 AM 25.0 °F 15.5 °F 15.1 °F 66% 30.12 in - SW 9.2 mph - N/A   Unknown
7:56 AM 30.0 °F 21.7 °F 18.0 °F 61% 30.09 in - SW 9.2 mph - N/A   Unknown
8:56 AM 41.0 °F 32.8 °F 24.1 °F 51% 30.08 in - West 16.1 mph - N/A   Unknown
9:56 AM 46.9 °F - 25.0 °F 42% 30.06 in - WNW 12.7 mph - N/A   Unknown
10:56 AM 50.0 °F - 27.0 °F 41% 30.04 in - WNW 15.0 mph - N/A   Unknown
11:56 AM 55.0 °F - 30.9 °F 40% 30.01 in - WNW 19.6 mph 28.8 mph N/A   Unknown
12:56 PM 55.9 °F - 30.9 °F 39% 29.98 in - NW 16.1 mph 26.5 mph N/A   Unknown
1:56 PM 60.1 °F - 30.9 °F 33% 29.94 in - WNW 18.4 mph 27.6 mph N/A   Unknown
2:56 PM 59.0 °F - 28.9 °F 32% 29.92 in - NW 20.7 mph 27.6 mph N/A   Unknown
3:56 PM 60.1 °F - 28.9 °F 31% 29.91 in - NW 20.7 mph 29.9 mph N/A   Unknown
4:56 PM 59.0 °F - 28.9 °F 32% 29.91 in - NW 13.8 mph 19.6 mph N/A   Unknown
5:56 PM 54.0 °F - 28.9 °F 38% 29.91 in - NW 9.2 mph - N/A   Unknown
6:56 PM 50.0 °F - 28.9 °F 44% 29.92 in - WNW 3.5 mph - N/A   Unknown
7:56 PM 50.0 °F - 28.9 °F 44% 29.91 in - West 3.5 mph - N/A   Unknown
8:56 PM 48.9 °F - 30.0 °F 48% 29.88 in - WSW 4.6 mph - N/A   Unknown
9:56 PM 46.9 °F - 30.0 °F 52% 29.86 in - SW 4.6 mph - N/A   Unknown
10:56 PM 46.9 °F - 30.9 °F 54% 29.84 in - SSW 8.1 mph - N/A   Unknown
11:56 PM 48.0 °F - 30.0 °F 50% 29.82 in - WSW 12.7 mph - N/A   Unknown